Preview of NWS' New Version of Forecast
This preview is not operational and should not be used for support decisions.

Regional Weather Roundup (RWR)

Issued by National Weather Service (NWS)

                            
000
ASUS45 KCYS 172110
RWRWY 

WYOMING REGIONAL WEATHER ROUNDUP
NATIONAL WEATHER SERVICE CHEYENNE WY
300 PM MDT MON JUN 17 2019

NOTE:  "FAIR" INDICATES FEW OR NO CLOUDS BELOW 12,000 FEET
WITH NO SIGNIFICANT WEATHER AND/OR OBSTRUCTIONS TO VISIBILITY.

WYZ001-172200-
YELLOWSTONE NATIONAL PARK
  
CITY           SKY/WX    TMP DP  RH WIND       PRES   REMARKS
LK YELLOWSTONE NOT AVBL                                               
W YELLOWSTONE  NOT AVBL                                               

$$
WYZ002>013-054>058-071-098>099-172200-
NORTHERN WYOMING
  
CITY           SKY/WX    TMP DP  RH WIND       PRES   REMARKS
JACKSON        FAIR      66  45  46 N7        30.12S                  
CODY           CLOUDY    67  50  54 N9        30.09F                  
GREYBULL       FAIR      75  48  38 VRB6      30.00F                  
WORLAND        FAIR      76  50  40 NE8       30.02F                  
SHERIDAN       PTSUNNY   65  55  70 S7        30.09F                  
BUFFALO        PTSUNNY   60  52  74 CALM      30.14F                  
GILLETTE       PTSUNNY   70  49  47 N10       30.07F                  
NEWCASTLE      MOCLDY    64  50  59 SE15G23   30.09S                  

$$
WYZ014>020-022>026-101>103-172200-
CENTRAL WYOMING
  
CITY           SKY/WX    TMP DP  RH WIND       PRES   REMARKS
BIG PINEY      CLOUDY    60  46  59 W13       30.16R                  
PINEDALE       FAIR      66  37  34 W7        30.15S                  
DUBOIS         FAIR      59  45  58 SW3       30.17S                  
LANDER         FAIR      66  50  56 CALM      30.08F                  
RIVERTON       PTSUNNY   69  49  48 E3        30.09F                  
CASPER         FAIR      72  49  44 N10       30.07F                  
DOUGLAS        CLOUDY    68  50  52 NE7       30.09S                  

$$
WYZ021-027>030-104>119-172200-
SOUTHERN WYOMING
  
CITY           SKY/WX    TMP DP  RH WIND       PRES   REMARKS
EVANSTON       FAIR      70  38  31 S15       30.15F                  
KEMMERER       LGT RAIN  55  45  67 NW10      30.17R                  
ROCK SPRINGS   CLOUDY    69  36  29 CALM      30.09F                  
DIXON          FAIR      65  45  46 E8G20     30.14F                  
RAWLINS        LGT RAIN  59  49  69 E5        30.13F                  
SARATOGA       FAIR      63  43  48 SE12      30.15F                  
LARAMIE        FAIR      61  44  53 N8        30.16F                  
CHEYENNE       TSTM      53  49  86 SW22G28   30.16R FOG              
TORRINGTON     FAIR      73  59  61 E14G25    30.02F                  
PINE BLUFFS    MOCLDY    73  52  46 NE13      30.06F                  

$$
  

000
ASUS45 KCYS 172110
RWRWY 

WYOMING REGIONAL WEATHER ROUNDUP
NATIONAL WEATHER SERVICE CHEYENNE WY
300 PM MDT MON JUN 17 2019

NOTE:  "FAIR" INDICATES FEW OR NO CLOUDS BELOW 12,000 FEET
WITH NO SIGNIFICANT WEATHER AND/OR OBSTRUCTIONS TO VISIBILITY.

WYZ001-172200-
...YELLOWSTONE NATIONAL PARK...
  
CITY           SKY/WX    TMP DP  RH WIND       PRES   REMARKS
LK YELLOWSTONE NOT AVBL                                               
W YELLOWSTONE  NOT AVBL                                               

$$
WYZ002>013-054>058-071-098>099-172200-
...NORTHERN WYOMING...
  
CITY           SKY/WX    TMP DP  RH WIND       PRES   REMARKS
JACKSON        CLOUDY    66  45  46 N7        30.12S                  
CODY           CLOUDY    67  50  54 N9        30.09F                  
GREYBULL       MOSUNNY   75  48  38 VRB6      30.00F                  
WORLAND        MOSUNNY   76  50  40 NE8       30.02F                  
SHERIDAN       PTSUNNY   65  55  70 S7        30.09F                  
BUFFALO        PTSUNNY   60  52  74 CALM      30.14F                  
GILLETTE       PTSUNNY   70  49  47 N10       30.07F                  
HULETT         NOT AVBL                                               
NEWCASTLE      PTSUNNY   64  50  59 SE15G23   30.09S                  

$$
WYZ014>020-022>026-101>103-172200-
...CENTRAL WYOMING...
  
CITY           SKY/WX    TMP DP  RH WIND       PRES   REMARKS
BIG PINEY      CLOUDY    60  46  59 W13       30.16R                  
PINEDALE       CLOUDY    66  37  34 W7        30.15S                  
DUBOIS         FAIR      59  45  58 SW3       30.17S                  
LANDER         MOSUNNY   66  50  56 CALM      30.08F                  
RIVERTON       PTSUNNY   69  49  48 E3        30.09F                  
CASPER         MOSUNNY   72  49  44 N10       30.07F                  
DOUGLAS        CLOUDY    68  50  52 NE7       30.09S                  

$$
WYZ021-027>030-104>119-172200-
...SOUTHERN WYOMING...
  
CITY           SKY/WX    TMP DP  RH WIND       PRES   REMARKS
EVANSTON       CLOUDY    70  38  31 S15       30.15F                  
KEMMERER       HVY RAIN  57  43  58 NW13G25   30.17R                  
FORT BRIDGER   NOT AVBL                                               
ROCK SPRINGS   CLOUDY    69  36  29 CALM      30.09F                  
DIXON          FAIR      65  45  46 E8G20     30.14F                  
RAWLINS        LGT RAIN  59  49  69 E5        30.13F                  
SARATOGA       FAIR      63  43  48 SE12      30.15F                  
LARAMIE        CLOUDY    61  44  53 N8        30.16F                  
CHEYENNE       TSTM      53  49  86 SW22G28   30.16R FOG              
TORRINGTON     PTSUNNY   73  59  61 E14G25    30.02F                  
PINE BLUFFS    PTSUNNY   73  52  46 NE13      30.06F                  

$$